Location: Eycheil
(42.9684°N, 1.1636°E)
Time: 16:14:29
(UTC+00:00)

Daily predictions for brighter satellites

Satellite Brightness Start Highest point End
(mag) Time Altitude Azimuth Time Altitude Azimuth Time Altitude Azimuth
OPS 8737 4.0 17:12:17 10° NW 17:15:20 81° NE 17:18:30 10° SE
Cosmos 1821 Rocket 4.5 17:12:57 10° N 17:18:39 37° ENE 17:24:16 10° SE
Cosmos 2056 Rocket 4.2 17:17:48 10° SW 17:22:49 54° WNW 17:27:50 10° NNE
IRS-P3 4.4 17:19:24 10° SE 17:24:23 43° ENE 17:29:24 10° N
Meteor 1-28 Rocket 4.0 17:21:47 10° N 17:24:57 44° WNW 17:28:05 10° SSW
Cosmos 1340 Rocket 4.1 17:22:59 10° NNE 17:25:44 19° ENE 17:28:29 10° ESE
Meteor 1-21 4.4 17:21:43 10° S 17:27:09 54° E 17:32:36 10° NNE
ARIANE 5 R/B 2.5 17:24:36 10° SSE 17:29:46 70° ENE 17:34:58 10° N
COSMO-SKYMED 1 3.8 17:28:43 10° NE 17:31:48 20° E 17:34:52 10° SE
Cosmos 2181 Rocket 4.1 17:27:26 10° SSE 17:33:23 57° E 17:39:28 10° NNE
Dummy Sat-01 4.5 17:31:17 10° N 17:34:56 74° E 17:38:31 10° S
USA 238 DEB 4.0 17:31:56 10° NNW 17:39:24 72° NE 17:47:30 10° SE
USA 238 4.0 17:32:02 10° NNW 17:39:30 71° NE 17:47:36 10° SE
USA 267 4.2 17:35:59 11° ENE 17:41:18 29° NNE 17:46:45 10° NW
DNEPR-1 R/B 3.5 17:37:14 10° SSW 17:41:45 76° ESE 17:45:59 10° NE
Cosmos 1633 Rocket 3.7 17:37:50 10° NNW 17:42:04 59° W 17:46:18 10° S
Cosmos 968 Rocket 3.4 17:38:09 10° NNW 17:43:19 81° ENE 17:48:25 10° SSE
Cosmos 1869 Rocket 4.4 17:39:54 10° NNE 17:43:42 28° ENE 17:47:27 10° SE
SL-16 R/B 3.9 17:38:42 10° N 17:44:21 39° WNW 17:49:59 10° SW
Cosmos 2366 rocket 4.2 17:43:03 10° N 17:49:25 84° W 17:55:46 10° S
Meteor 2-13 Rocket 4.5 17:43:24 10° S 17:49:27 63° E 17:55:32 10° NNE
Resurs 1-3 4.0 17:48:16 10° SE 17:52:15 39° ENE 17:56:16 10° N
Cosmos 1697 Rocket 4.1 17:49:30 10° N 17:53:13 17° NE 17:54:37 16° ENE
Okean 3 3.9 17:51:10 10° SSE 17:54:53 36° E 17:58:38 10° NNE
Cosmos 1603 3.9 17:49:26 10° SSW 17:55:05 77° WNW 18:00:45 10° NNE
Cosmos 2218 Rocket 4.2 17:48:52 10° N 17:55:19 82° W 18:01:40 10° S
SL-24 R/B - RUBIN 2 3.8 17:51:09 10° NNW 17:55:20 46° NE 17:59:36 10° SE
Cosmos 1331 Rocket 4.1 17:51:50 10° SSW 17:56:57 76° WNW 18:02:06 10° NNE
SJ-6F 4.3 17:53:09 10° SSE 17:57:12 89° ENE 18:01:16 10° NNW
Meteor 1-12 Rocket 4.1 17:52:40 10° N 17:58:19 72° E 18:03:56 10° SSE
CZ-4 R/B 4.2 17:56:08 10° SSE 18:00:03 72° ENE 18:04:01 10° N
Cosmos 1833 Rocket 3.7 17:55:52 10° SSE 18:00:23 25° ESE 18:02:47 19° ENE
CZ-2D R/B 3.9 17:58:36 10° S 18:01:36 46° W 18:04:39 10° NNW
Cosmos 1741 Rocket 3.9 17:58:07 10° NNW 18:03:21 83° ENE 18:08:33 10° SSE
Helios 1A Rocket 4.5 18:06:35 14° SE 18:06:35 14° SE 18:07:22 10° SE
USA 59 Rocket 1.4 18:03:50 10° N 18:05:27 16° NNE 18:05:27 16° NNE
COSMOS 2455 4.2 18:02:21 10° N 18:06:24 18° NE 18:07:25 17° NE
PSLV R/B 3.9 18:03:13 10° SE 18:07:04 38° ENE 18:10:56 10° N
Okean 2 3.1 18:04:18 10° S 18:08:08 83° E 18:12:00 10° N
Cosmos 1302 Rocket 4.1 18:03:12 10° S 18:08:20 58° ESE 18:13:11 12° NNE
Cosmos 1703 4.4 18:05:30 10° SSW 18:08:35 36° WNW 18:11:42 10° N
Cosmos 1850 Rocket 4.1 18:04:36 10° NNW 18:09:55 82° WSW 18:15:14 10° SSE
SAR-Lupe-1 4.4 18:07:04 10° S 18:10:35 67° WSW 18:14:09 10° NNW
Cosmos 2239 Rocket 4.5 18:04:50 10° N 18:11:03 59° E 18:17:09 10° SSE
SPOT 1/Viking Rocket 3.6 18:07:58 10° S 18:13:07 81° WSW 18:18:17 10° NNW
SKYMED 2 3.6 18:10:45 10° N 18:15:07 80° WNW 18:19:27 10° SSW
Nadezhda 3 Rocket 3.9 18:11:58 10° S 18:18:01 66° E 18:24:08 10° NNE
NOSS 3-4 (A) 3.9 18:13:30 10° WSW 18:18:35 47° NW 18:23:42 12° NNE
NOSS 3-4 (C) 3.9 18:13:37 10° WSW 18:18:43 48° NW 18:23:52 12° NNE
RESURS DK-1 2.3 18:15:04 10° SSW 18:19:03 81° WNW 18:21:45 20° NNE
YAOGAN 1 2.4 18:16:58 10° SSE 18:21:12 80° ENE 18:25:29 10° N
NOAA 6 4.0 18:21:21 10° SSE 18:26:20 59° ENE 18:31:22 10° N
USA 276 3.4 18:25:04 10° WNW 18:26:52 23° NNW 18:26:52 23° NNW
ISS -2.4 18:25:05 10° W 18:28:04 29° NNW 18:28:48 27° N
Cosmos 1452 Rocket 4.2 18:23:14 10° SW 18:28:22 54° WNW 18:33:32 10° NNE
Cosmos 2360 4.1 18:30:35 10° NNW 18:36:19 72° ENE 18:41:59 10° SSE
Cosmos 1992 Rocket 4.0 18:31:27 10° S 18:36:30 56° ESE 18:38:30 34° NE
CZ-2D R/B 3.6 18:34:04 10° S 18:37:53 65° W 18:41:40 10° NNW
Resurs 01 Rocket 1.6 18:34:41 10° SSE 18:38:55 53° ENE 18:43:11 10° N
Radarsat Rocket 4.0 18:34:03 10° SSE 18:40:24 90° WSW 18:46:19 10° NNW
BREEZE-M DEB (TANK) 3.4 18:45:10 10° W 18:47:51 48° N 18:48:38 42° NNE
Spot 4 Rocket 4.4 18:44:03 10° S 18:49:07 66° WSW 18:54:14 10° NNW
USA 215 3.2 18:47:35 34° NE 18:50:42 78° SE 18:57:13 10° SW
NOSS 3-1 (C) 4.4 18:45:02 10° NNW 18:51:38 42° NE 18:53:19 38° ENE
Cosmos 909 Rocket 4.4 18:46:22 10° SSW 18:54:11 57° ESE 18:56:24 41° ENE
IRAS Rocket 4.1 18:51:02 10° SSE 18:56:32 87° ENE 19:02:07 10° NNW
Cosmos 1656 4.0 18:51:08 10° NNW 18:56:41 65° WSW 19:02:05 10° S
Meteor 2-19 Rocket 4.3 18:51:49 10° S 18:57:52 65° E 19:01:49 23° NNE
COSMO-SKYMED 1 4.0 19:03:42 11° N 19:07:09 34° WNW 19:10:52 10° SW
Cosmos 1605 Rocket 4.0 19:04:37 10° N 19:10:34 58° ENE 19:10:34 58° ENE
CARTOSAT-1 4.4 19:09:37 10° S 19:13:40 47° W 19:17:45 10° NNW
Cosmos 1980 Rocket 3.9 19:08:56 10° N 19:10:40 18° N 19:10:40 18° N
USA 267 3.3 19:23:20 58° NE 19:23:31 59° NNE 19:29:54 10° NW
DELTA 2 R/B (1) 4.2 19:28:40 10° WSW 19:33:05 48° SSW 19:33:05 48° SSW
Cosmos 1697 Rocket 3.2 19:32:14 10° NNW 19:36:23 51° NNW 19:36:23 51° NNW
Cosmos 1833 Rocket 3.4 19:38:31 10° SW 19:43:57 48° WNW 19:44:31 47° NW
COSMOS 2455 4.0 19:47:15 10° NNW 19:50:35 35° NNW 19:50:35 35° NNW
BREEZE-M DEB (TANK) 4.4 20:01:32 10° WNW 20:05:44 55° N 20:05:44 55° N
Resurs 01 Rocket 4.5 20:13:10 10° SW 20:15:36 15° W 20:18:02 10° WNW
USA 215 4.5 20:34:56 36° NW 20:34:56 36° NW 20:39:24 10° W
